Home   Weather   Amman   Past weeks

Flag for Jordan Past Weather in Amman, Jordan — Yesterday and Last 2 Weeks

Now
77 °F

Duststorm.


Feels Like: 77 °F
Forecast: 57 / 81 °F
Wind: 12 mph from Southeast

Location: Amman Airport

Current Time: Apr 26, 2017 at 1:16:58 pm

Latest Report: Apr 26, 2017 at 12:00 pm


Visibility: 3 mi

Pressure: 30.04 "Hg (27.36 "Hg at 816m altitude)

Humidity: 19%

Dew Point: 32 °F

Location of AmmanLocation

Past Weather in Amman — Graph

°F

Amman Temperature Yesterday

Maximum temperature yesterday: 77 °F (at 3:00 pm)
Minimum temperature yesterday: 46 °F (at 5:00 am)
Average temperature yesterday: 62 °F

High & Low Weather Summary for the Past Weeks

 TemperatureHumidityPressure
High93 °F (Apr 22, 3:00 pm)94% (Apr 17, 6:00 am)30.15 "Hg (Apr 17, 6:00 am)
Low46 °F (Apr 25, 5:00 am)7% (Apr 22, 2:00 pm)29.74 "Hg (Apr 13, 2:00 pm)
Average66 °F43%30.01 "Hg
* Reported Apr 11 12:00 pm — Apr 26 12:00 pm, Amman, Weather by CustomWeather, © 2017

Note: Actual official high and low records may vary slightly from our data, if they occured in-between our weather recording intervals... More about our weather records

Advertising

Amman Weather History for the Previous 24 Hours

Scroll right to see more
 ConditionsComfort  
Time TempWeatherWind HumidityBarometerVisibility
12:00 pm
Wed, Apr 26
77 °FDuststorm.12 mph19%30.04 "Hg3 mi
11:00 am73 °FDuststorm.10 mph17%30.07 "Hg3 mi
10:00 am70 °FDuststorm.9 mph17%30.07 "Hg3 mi
9:00 am66 °FDuststorm.12 mph24%30.07 "Hg2 mi
8:00 am63 °FDuststorm.8 mph27%30.07 "Hg2 mi
7:00 am61 °FHaze.9 mph29%30.04 "Hg2 mi
6:00 am57 °FHaze.No wind48%30.04 "Hg3 mi
5:00 am57 °FHaze.No wind51%30.04 "Hg3 mi
4:00 am57 °FClear.No wind59%30.04 "Hg4 mi
3:00 am59 °FClear.No wind51%30.04 "Hg4 mi
2:00 am61 °FClear.No wind48%30.04 "Hg4 mi
1:00 am59 °FClear.No wind55%30.04 "Hg4 mi
12:00 am61 °FClear.No wind52%30.04 "Hg4 mi
11:00 pm
Tue, Apr 25
63 °FClear.5 mph49%30.04 "Hg4 mi
10:00 pm64 °FClear.5 mph43%30.04 "Hg4 mi
9:00 pm66 °FHaze.No wind43%30.04 "Hg3 mi
8:00 pm68 °FHaze.7 mph35%30.04 "Hg3 mi
7:00 pm72 °FHaze.6 mph25%30.01 "Hg3 mi
6:00 pm75 °FHaze.3 mph18%30.01 "Hg3 mi
5:00 pm77 °FHaze.No wind15%30.01 "Hg2 mi
4:00 pm77 °FHaze.No wind14%30.04 "Hg3 mi
3:00 pm77 °FHaze.9 mph15%30.04 "Hg3 mi
2:00 pm75 °FHaze.8 mph19%30.07 "Hg3 mi
1:00 pm73 °FHaze.8 mph20%30.09 "Hg3 mi
Weather by CustomWeather, © 2017

See weather overviewHow to use our weather pages